15min,AgWx,beryljct,423,23JUN2019:00:00:00,45.0,12.89,41.2,41.7,44.0,46.8,41.7,50,55,41,0.497,26.6,29.5,24.2,4.889,4.9,322,13,7.1,0.00013,0.00020,68.6,69.1,10,0,.,.,16.06,0.00,0.00
15min,AgWx,beryljct,423,23JUN2019:00:15:00,44.3,12.88,43.0,42.3,42.0,42.7,41.3,54,57,51,0.482,26.6,27.2,26.0,4.976,5.5,305,5.0,6.5,0.00013,0.00018,68.3,69.1,9,0,.,.,16.06,0.00,0.00
15min,AgWx,beryljct,423,23JUN2019:00:30:00,43.8,12.89,42.8,42.9,43.1,44.3,42.1,49,54,44,0.458,25.1,26.6,23.5,4.713,4.5,318,11,6.1,0.00011,0.00017,68.0,69.0,10,0,.,.,16.06,0.00,0.00
15min,AgWx,beryljct,423,23JUN2019:00:45:00,43.4,12.88,42.0,41.7,42.3,43.0,41.6,52,55,47,0.451,25.8,26.8,24.3,3.771,3.8,344,6.6,5.2,0.00006,0.00010,67.7,68.9,9,0,.,.,16.07,0.00,0.00
15min,AgWx,beryljct,423,23JUN2019:01:00:00,42.7,12.87,42.8,41.4,41.2,41.8,40.4,52,56,49,0.455,24.9,26.2,23.9,0.548,2.2,242,66,4.0,-0.00005,-0.00005,67.4,68.8,10,0,.,.,16.07,0.00,0.00
15min,AgWx,beryljct,423,23JUN2019:01:15:00,42.2,12.86,40.9,42.1,42.7,44.0,41.2,47,52,41,0.460,23.7,25.1,21.9,2.762,1.1,238,30,3.0,-0.00017,-0.00022,67.2,68.7,10,0,.,.,16.07,0.00,0.00
15min,AgWx,beryljct,423,23JUN2019:01:30:00,41.7,12.86,41.8,42.2,42.1,42.7,41.5,50,52,48,0.477,24.9,26.0,23.7,0.022,1.6,300,8.6,3.0,-0.00011,-0.00013,66.9,68.6,9,0,.,.,16.07,0.00,0.00
15min,AgWx,beryljct,423,23JUN2019:01:45:00,41.1,12.85,40.9,40.2,40.5,42.1,38.7,58,66,53,0.493,27.0,28.4,25.3,0.395,0.6,305,0.1,1.6,-0.00023,-0.00033,66.6,68.6,10,0,.,.,16.07,0.00,0.00
15min,AgWx,beryljct,423,23JUN2019:02:00:00,40.6,12.83,43.8,42.5,41.8,42.9,40.2,51,58,45,0.453,24.9,26.6,23.1,1.14,0.9,305,0.1,1.8,-0.00019,-0.00026,66.3,68.5,10,0,.,.,16.07,0.00,0.00
15min,AgWx,beryljct,423,23JUN2019:02:15:00,40.5,12.82,39.5,41.8,42.8,44.5,41.3,46,51,39,0.446,23.5,24.8,21.0,2.411,3.4,304,3.3,4.9,0.00006,0.00011,66.0,68.4,10,0,.,.,16.07,0.00,0.00
15min,AgWx,beryljct,423,23JUN2019:02:30:00,40.5,12.84,41.5,41.9,41.2,43.4,40.2,48,54,43,0.418,23.1,25.7,20.7,2.411,3.7,315,13,5.6,0.00007,0.00011,65.8,68.3,10,0,.,.,16.07,0.00,0.00
15min,AgWx,beryljct,423,23JUN2019:02:45:00,40.3,12.82,40.8,41.5,41.6,43.0,40.1,46,54,40,0.391,22.2,24.7,20.0,2.477,3.2,315,8.2,5.2,0.00004,0.00008,65.5,68.1,9,0,.,.,16.07,0.00,0.00
15min,AgWx,beryljct,423,23JUN2019:03:00:00,40.1,12.82,37.2,38.1,40.0,41.4,38.1,50,55,44,0.421,22.7,24.3,20.8,4.406,3.9,327,11,5.3,0.00007,0.00011,65.2,68.1,10,0,.,.,16.08,0.00,0.00
15min,AgWx,beryljct,423,23JUN2019:03:15:00,39.6,12.81,37.0,36.1,37.4,38.1,36.1,54,58,52,0.417,22.5,23.1,21.6,4.121,4.3,332,7.8,4.9,0.00006,0.00010,65.0,68.0,9,0,.,.,16.08,0.00,0.00
15min,AgWx,beryljct,423,23JUN2019:03:30:00,38.7,12.8,33.8,35.9,36.5,37.7,35.7,57,60,54,0.429,22.6,23.4,21.5,3.223,3.3,336,22,5.5,0.00001,0.00003,64.7,67.8,9,0,.,.,16.07,0.00,0.00
15min,AgWx,beryljct,423,23JUN2019:03:45:00,37.8,12.81,34.7,34.5,34.9,35.7,34.4,64,67,59,0.397,23.8,24.6,21.6,3.88,3.8,162,10,6.0,0.00000,0.00002,64.4,67.7,9,0,.,.,16.07,0.00,0.00
15min,AgWx,beryljct,423,23JUN2019:04:00:00,36.9,12.8,33.5,34.6,34.9,35.3,34.4,57,59,56,0.397,21.3,21.6,21.0,3.464,3.0,168,11,4.4,-0.00002,0.00000,64.2,67.6,10,0,.,.,16.07,0.00,0.00
15min,AgWx,beryljct,423,23JUN2019:04:15:00,36.1,12.79,35.4,34.7,33.6,34.7,32.4,64,68,57,0.390,22.6,23.8,21.1,2.543,1.6,139,7.4,3.7,-0.00011,-0.00014,64.0,67.5,10,0,.,.,16.07,0.00,0.00
15min,AgWx,beryljct,423,23JUN2019:04:30:00,35.4,12.8,32.6,32.2,33.4,34.8,32.1,60,63,57,0.383,21.1,22.2,20.2,2.653,2.9,163,14,4.3,0.00020,0.00035,63.7,67.4,9,0,.,.,16.07,0.00,0.00
15min,AgWx,beryljct,423,23JUN2019:04:45:00,34.8,12.79,34.3,34.0,33.1,34.1,31.9,59,65,53,0.350,20.3,21.5,18.6,4.275,3.9,181,2.7,5.2,0.00026,0.00045,63.5,67.3,9,0,.,.,16.07,0.00,0.00
15min,AgWx,beryljct,423,23JUN2019:05:00:00,34.7,12.78,33.4,33.2,33.9,34.4,33.1,54,57,51,0.354,18.8,19.5,17.9,4.121,3.6,181,4.5,5.5,0.00028,0.00049,63.3,67.1,10,0,.,.,16.08,0.00,0.00
15min,AgWx,beryljct,423,23JUN2019:05:15:00,34.4,12.79,32.0,32.0,33.0,33.6,31.9,56,63,53,0.376,19.1,21.0,18.0,0,3.0,179,1.8,4.6,0.00023,0.00040,63.0,67.0,10,3,.,.,16.08,0.00,0.00
15min,AgWx,beryljct,423,23JUN2019:05:30:00,34.0,12.81,30.3,30.3,31.1,32.0,30.2,69,74,62,0.406,22.0,23.8,20.0,1.82,0.4,178,1.7,2.0,0.00012,0.00014,62.8,66.9,9,22,.,.,16.08,0.00,0.00
15min,AgWx,beryljct,423,23JUN2019:05:45:00,33.9,12.81,33.4,32.4,31.1,32.4,30.0,67,72,63,0.404,21.5,22.1,20.8,0,0.9,173,0.0,1.8,0.00028,0.00033,62.6,66.8,10,56,.,.,16.08,0.00,0.00
15min,AgWx,beryljct,423,23JUN2019:06:00:00,34.6,12.82,34.9,34.3,33.3,34.3,32.5,68,70,66,0.445,23.9,24.7,22.2,0,0.0,173,0.0,0.4,0.00036,0.00038,62.3,66.7,10,92,.,.,16.07,0.00,0.00
15min,AgWx,beryljct,423,23JUN2019:06:15:00,36.5,12.8,37.1,36.5,35.2,36.5,34.2,67,72,62,0.454,25.3,26.3,24.5,0,0.3,173,0.0,1.4,0.00052,0.00057,62.1,66.6,10,131,.,.,16.07,0.00,0.00
15min,AgWx,beryljct,423,23JUN2019:06:30:00,39.0,12.81,40.4,40.0,38.7,40.0,36.6,55,62,52,0.436,23.8,25.2,23.1,0.57,0.2,173,0.0,1.0,0.00072,0.00078,61.9,66.5,9,173,.,.,16.07,0.00,0.00
15min,AgWx,beryljct,423,23JUN2019:06:45:00,41.9,12.82,42.5,42.6,41.5,42.6,40.0,53,57,50,0.476,25.5,27.5,23.1,1.995,1.3,171,3.4,2.5,0.00102,0.00118,61.7,66.3,10,220,.,.,16.07,0.00,0.00
15min,AgWx,beryljct,423,23JUN2019:07:00:00,44.8,12.85,45.9,46.5,44.8,46.8,42.6,48,52,45,0.484,26.2,27.4,25.3,0.592,1.2,165,0.5,2.4,0.00130,0.00148,61.5,66.2,10,268,.,.,16.06,0.00,0.00
15min,AgWx,beryljct,423,23JUN2019:07:15:00,47.9,12.87,49.3,49.2,47.6,49.2,46.2,46,48,45,0.540,27.7,29.6,25.8,2.806,1.2,152,18,2.9,0.00159,0.00180,61.4,66.1,10,313,.,.,16.07,0.00,0.00
15min,AgWx,beryljct,423,23JUN2019:07:30:00,50.9,12.89,51.0,50.9,50.4,51.1,49.3,44,48,39,0.512,29.0,32.3,27.0,1.074,2.0,130,12,3.6,0.00200,0.00232,61.3,66.0,10,369,.,.,16.06,0.00,0.00
15min,AgWx,beryljct,423,23JUN2019:07:45:00,53.5,12.96,53.6,53.3,52.0,53.4,51.0,41,44,39,0.561,29.1,30.8,27.8,2.105,1.9,122,11,3.3,0.00231,0.00265,61.2,65.8,10,420,.,.,16.06,0.00,0.00
15min,AgWx,beryljct,423,23JUN2019:08:00:00,56.0,13.04,56.6,55.3,54.5,55.4,53.2,34,41,30,0.455,26.5,30.2,24.3,2.126,2.4,136,18,4.0,0.00272,0.00318,61.1,65.7,10,471,.,.,16.06,0.00,0.00
15min,AgWx,beryljct,423,23JUN2019:08:15:00,58.3,13.24,57.8,57.0,56.1,57.1,55.3,31,34,28,0.451,25.6,28.0,23.8,0.899,2.4,97,14,4.3,0.00307,0.00357,61.2,65.6,10,521,.,.,16.05,0.00,0.00
15min,AgWx,beryljct,423,23JUN2019:08:30:00,60.6,13.43,56.9,58.0,57.6,58.4,56.8,27,31,23,0.411,23.5,26.8,20.4,3.529,2.1,91,13,4.4,0.00339,0.00390,61.2,65.5,9,570,.,.,16.05,0.00,0.00
15min,AgWx,beryljct,423,23JUN2019:08:45:00,62.6,13.78,60.7,59.3,58.6,59.5,57.7,27,30,25,0.432,24.7,27.7,21.9,0,1.7,78,32,3.9,0.00367,0.00415,61.4,65.4,9,617,.,.,16.05,0.00,0.00
15min,AgWx,beryljct,423,23JUN2019:09:00:00,64.7,14.24,62.0,60.8,60.2,61.0,59.4,24,29,22,0.395,23.3,28.2,20.8,2.28,1.0,9.3,19,3.4,0.00393,0.00434,61.6,65.3,9,661,.,.,16.05,0.00,0.00
15min,AgWx,beryljct,423,23JUN2019:09:15:00,66.7,14.18,61.3,62.3,61.8,63.3,60.7,22,24,20,0.415,22.0,25.7,19.2,1.556,1.0,7.3,47,3.8,0.00426,0.00470,61.7,65.2,9,705,.,.,16.04,0.00,0.00
15min,AgWx,beryljct,423,23JUN2019:09:30:00,68.5,14.16,62.3,62.6,62.8,64.0,62.0,22,26,20,0.432,23.6,27.8,21.1,0.723,1.9,101,44,4.6,0.00466,0.00527,62.0,65.1,9,747,.,.,16.04,0.00,0.00
15min,AgWx,beryljct,423,23JUN2019:09:45:00,69.7,14.13,62.4,62.8,62.9,63.7,62.6,23,26,21,0.450,24.5,27.4,22.4,2.017,1.6,309,33,3.6,0.00487,0.00545,62.3,65.0,9,786,.,.,16.03,0.00,0.00
15min,AgWx,beryljct,423,23JUN2019:10:00:00,70.5,14.1,64.9,64.2,63.4,64.2,62.6,24,26,22,0.476,26.1,28.6,23.5,0,2.3,295,21,4.3,0.00518,0.00588,62.6,64.9,9,822,.,.,16.03,0.00,0.00
15min,AgWx,beryljct,423,23JUN2019:10:15:00,71.3,14.15,64.4,65.0,65.3,66.3,64.4,24,27,21,0.468,27.2,30.8,24.5,0.088,2.0,229,74,7.0,0.00548,0.00616,63.0,64.8,9,858,.,.,16.03,0.00,0.00
15min,AgWx,beryljct,423,23JUN2019:10:30:00,71.7,14.09,65.8,65.7,65.4,65.9,64.4,23,27,21,0.516,26.8,30.6,23.4,1.469,3.0,7.2,49,6.6,0.00576,0.00661,63.4,64.8,9,891,.,.,16.03,0.00,0.00
15min,AgWx,beryljct,423,23JUN2019:10:45:00,72.0,14.06,67.8,66.7,66.2,67.1,65.4,24,28,21,0.599,28.2,32.2,25.0,5.897,4.4,91,28,9.0,0.00609,0.00715,63.8,64.7,9,922,.,.,16.03,0.00,0.00
15min,AgWx,beryljct,423,23JUN2019:11:00:00,72.1,14.06,66.8,66.8,66.7,67.8,65.7,22,27,19,0.481,26.6,31.8,24.3,3.99,5.2,93,28,9.5,0.00635,0.00755,64.3,64.7,9,950,.,.,16.03,0.00,0.00
15min,AgWx,beryljct,423,23JUN2019:11:15:00,72.3,13.73,66.6,67.5,67.5,68.5,66.8,21,24,18,0.462,25.9,30.4,22.9,0.855,4.2,63,33,10.0,0.00648,0.00757,64.7,64.7,9,972,.,.,16.03,0.00,0.00
15min,AgWx,beryljct,423,23JUN2019:11:30:00,72.7,13.63,66.9,68.4,67.9,69.0,66.8,19,23,17,0.435,24.1,28.9,20.6,7.19,4.0,114,31,8.5,0.00659,0.00767,65.2,64.7,9,991,.,.,16.03,0.00,0.00
15min,AgWx,beryljct,423,23JUN2019:11:45:00,73.0,13.64,67.3,69.1,68.5,69.3,68.1,18,21,16,0.423,23.2,27.8,21.0,4.516,4.4,36,41,8.9,0.00677,0.00795,65.7,64.7,9,1006,.,.,16.03,0.00,0.00
15min,AgWx,beryljct,423,23JUN2019:12:00:00,73.5,13.63,67.9,68.6,68.6,69.2,67.9,19,23,17,0.464,24.2,28.8,21.0,3.902,4.6,2.3,52,9.5,0.00686,0.00807,66.3,64.7,9,1020,.,.,16.03,0.00,0.00
15min,AgWx,beryljct,423,23JUN2019:12:15:00,74.2,13.62,68.3,70.4,69.6,70.7,68.4,18,20,16,0.422,24.5,27.1,22.1,2.105,3.6,27,32,10.7,0.00688,0.00796,66.8,64.7,9,1025,.,.,16.02,0.00,0.00
15min,AgWx,beryljct,423,23JUN2019:12:30:00,75.1,13.57,71.5,72.9,70.7,73.1,69.8,19,22,16,0.516,26.6,30.6,21.9,4.121,2.9,135,60,7.3,0.00690,0.00787,67.4,64.7,9,1029,.,.,16.02,0.00,0.00
15min,AgWx,beryljct,423,23JUN2019:12:45:00,75.7,13.58,70.9,70.4,70.9,72.8,70.2,18,19,15,0.433,24.6,27.7,21.6,4.647,5.9,77,19,9.4,0.00720,0.00867,67.9,64.8,9,1032,.,.,16.02,0.00,0.00
15min,AgWx,beryljct,423,23JUN2019:13:00:00,75.9,13.59,70.5,71.1,70.8,72.5,69.7,17,21,15,0.438,23.9,30.8,20.6,4.45,4.5,128,25,9.2,0.00705,0.00829,68.5,64.9,9,1028,.,.,16.03,0.00,0.00
15min,AgWx,beryljct,423,23JUN2019:13:15:00,76.4,13.58,70.5,71.5,71.4,72.4,70.6,16,18,14,0.382,22.6,26.6,19.7,5.086,3.9,154,60,10.1,0.00699,0.00815,69.1,64.9,9,1022,.,.,16.03,0.00,0.00
15min,AgWx,beryljct,423,23JUN2019:13:30:00,76.6,13.61,72.4,71.8,72.1,72.8,71.4,15,18,13,0.367,22.4,27.1,19.0,0.022,4.1,142,73,7.3,0.00687,0.00808,69.7,65.0,9,992,.,.,16.03,0.00,0.00
15min,AgWx,beryljct,423,23JUN2019:13:45:00,76.7,13.54,71.7,72.0,72.2,73.4,71.6,15,18,13,0.383,21.7,27.3,18.3,2.433,4.0,129,27,8.2,0.00689,0.00807,70.3,65.2,9,998,.,.,16.03,0.00,0.00
15min,AgWx,beryljct,423,23JUN2019:14:00:00,76.9,13.52,74.7,73.4,72.6,73.5,71.9,16,19,13,0.464,23.2,28.1,18.5,6.27,4.7,113,36,10.2,0.00686,0.00814,70.8,65.3,9,977,.,.,16.02,0.00,0.00
15min,AgWx,beryljct,423,23JUN2019:14:15:00,77.1,13.49,74.6,73.9,73.0,74.1,72.2,14,17,12,0.390,21.5,26.5,17.5,4.669,4.0,160,39,9.0,0.00667,0.00785,71.4,65.4,9,955,.,.,16.02,0.00,0.00
15min,AgWx,beryljct,423,23JUN2019:14:30:00,77.7,13.48,72.6,73.4,73.9,74.6,73.3,15,17,14,0.415,23.9,27.2,20.8,6.072,4.9,126,28,9.1,0.00666,0.00799,72.0,65.6,9,931,.,.,16.02,0.00,0.00
15min,AgWx,beryljct,423,23JUN2019:14:45:00,78.2,13.5,72.7,73.3,73.7,74.3,73.3,15,18,13,0.389,23.5,27.6,19.9,7.804,5.5,136,35,9.6,0.00654,0.00796,72.5,65.7,9,902,.,.,16.03,0.00,0.00
15min,AgWx,beryljct,423,23JUN2019:15:00:00,78.7,13.48,75.0,74.0,73.9,75.1,73.1,15,18,13,0.388,23.2,28.5,20.0,1.885,4.6,118,22,8.1,0.00624,0.00751,72.9,65.9,9,873,.,.,16.02,0.00,0.00
15min,AgWx,beryljct,423,23JUN2019:15:15:00,79.5,13.43,75.5,74.7,74.3,74.9,73.7,15,17,14,0.429,24.2,27.8,21.1,3.354,3.5,92,27,8.5,0.00586,0.00690,73.4,66.1,9,839,.,.,16.03,0.00,0.00
15min,AgWx,beryljct,423,23JUN2019:15:30:00,80.6,13.41,75.5,74.4,74.9,75.9,74.1,15,18,13,0.406,24.7,28.4,21.2,1.973,4.2,90,31,7.5,0.00553,0.00669,73.9,66.2,10,772,.,.,16.02,0.00,0.00
15min,AgWx,beryljct,423,23JUN2019:15:45:00,81.2,13.4,73.8,75.3,75.2,76.0,74.5,16,19,13,0.508,25.2,30.4,21.3,2.346,5.3,128,24,8.6,0.00550,0.00683,74.2,66.4,9,739,.,.,16.02,0.00,0.00
15min,AgWx,beryljct,423,23JUN2019:16:00:00,81.6,13.38,74.7,75.9,75.6,76.4,75.2,16,19,13,0.476,25.5,31.2,21.7,4.494,4.8,112,29,10.2,0.00534,0.00658,74.6,66.6,9,725,.,.,16.02,0.00,0.00
15min,AgWx,beryljct,423,23JUN2019:16:15:00,81.8,13.43,76.3,76.2,75.9,76.5,75.5,16,18,14,0.548,26.5,29.6,22.8,6.883,6.3,109,15,9.6,0.00531,0.00681,74.9,66.8,9,683,.,.,16.02,0.00,0.00
15min,AgWx,beryljct,423,23JUN2019:16:30:00,81.7,13.4,75.2,76.5,76.4,77.6,76.0,16,20,14,0.509,26.6,32.2,23.7,6.335,7.3,127,15,11.1,0.00509,0.00673,75.2,67.0,9,623,.,.,16.02,0.00,0.00
15min,AgWx,beryljct,423,23JUN2019:16:45:00,81.6,13.38,76.6,76.1,75.9,76.5,75.5,15,17,13,0.478,24.9,27.5,21.9,5.678,5.9,124,19,9.5,0.00465,0.00606,75.5,67.2,9,594,.,.,16.03,0.00,0.00
15min,AgWx,beryljct,423,23JUN2019:17:00:00,81.3,13.44,75.6,76.6,76.4,76.8,76.0,17,19,15,0.495,27.7,31.1,24.5,5.919,6.8,128,16,10.6,0.00452,0.00604,75.7,67.4,9,548,.,.,16.02,0.00,0.00
15min,AgWx,beryljct,423,23JUN2019:17:15:00,81.1,13.44,77.6,76.6,76.5,76.9,76.1,17,20,15,0.597,28.2,32.6,25.1,5.196,7.7,131,12,10.6,0.00435,0.00598,75.8,67.6,9,501,.,.,16.03,0.00,0.00
15min,AgWx,beryljct,423,23JUN2019:17:30:00,80.9,13.43,76.1,76.4,76.7,77.0,76.4,18,19,15,0.556,29.4,32.0,26.1,7.322,7.6,128,13,11.4,0.00402,0.00560,76.0,67.8,10,454,.,.,16.03,0.00,0.00
15min,AgWx,beryljct,423,23JUN2019:17:45:00,80.5,13.45,76.5,76.4,76.4,76.7,75.7,17,23,14,0.421,28.0,35.9,23.0,0.153,6.3,151,32,9.6,0.00347,0.00485,76.0,68.0,9,405,.,.,16.03,0.00,0.00
15min,AgWx,beryljct,423,23JUN2019:18:00:00,80.3,13.28,76.8,76.6,76.0,76.6,74.8,19,28,14,0.486,30.3,39.6,23.4,3.508,2.9,209,31,6.3,0.00236,0.00306,76.1,68.2,10,352,.,.,16.03,0.00,0.00
15min,AgWx,beryljct,423,23JUN2019:18:15:00,79.7,13.18,74.2,74.2,74.5,76.7,73.5,24,30,16,0.531,35.0,41.5,27.1,5.59,4.7,267,20,8.9,0.00238,0.00333,76.1,68.4,10,308,.,.,16.03,0.00,0.00
15min,AgWx,beryljct,423,23JUN2019:18:30:00,78.8,13.19,71.4,72.9,73.8,75.1,72.9,24,29,15,0.696,34.5,39.3,24.0,6.708,4.3,279,33,9.1,0.00195,0.00281,76.1,68.5,10,259,.,.,16.03,0.00,0.00
15min,AgWx,beryljct,423,23JUN2019:18:45:00,77.6,13.18,73.1,72.0,72.2,73.4,71.4,25,31,19,0.630,34.8,39.0,29.0,10.83,6.4,289,12,10.8,0.00199,0.00311,76.0,68.7,10,212,.,.,16.03,0.00,0.00
15min,AgWx,beryljct,423,23JUN2019:19:00:00,76.3,13.15,71.2,71.5,71.9,72.7,70.8,23,27,20,0.629,32.5,35.8,28.7,7.3,7.1,269,7.8,11.3,0.00186,0.00310,75.9,68.8,10,167,.,.,16.03,0.00,0.00
15min,AgWx,beryljct,423,23JUN2019:19:15:00,75.0,13.12,70.3,71.0,71.4,72.1,70.7,23,26,20,0.587,31.2,34.4,28.9,6.73,7.2,264,6.0,9.7,0.00110,0.00147,75.8,68.9,9,125,.,.,16.04,0.00,0.00
15min,AgWx,beryljct,423,23JUN2019:19:30:00,73.5,13.14,69.8,69.8,69.8,70.9,68.8,25,29,22,0.559,32.2,35.9,29.3,7.125,6.3,264,5.2,9.4,0.00087,0.00120,75.7,69.1,10,87,.,.,16.04,0.01,0.00
15min,AgWx,beryljct,423,23JUN2019:19:45:00,71.9,13.11,68.0,67.8,68.8,69.8,67.8,24,26,22,0.583,30.7,32.2,28.8,5.875,6.3,255,4.2,8.5,0.00078,0.00108,75.5,69.2,10,54,.,.,16.04,0.00,0.00
15min,AgWx,beryljct,423,23JUN2019:20:00:00,69.8,13.09,66.9,67.0,66.9,67.8,66.0,25,27,23,0.524,30.2,31.8,28.2,6.138,6.2,254,2.9,6.8,0.00063,0.00089,75.3,69.4,10,15,.,.,16.04,0.00,0.00
15min,AgWx,beryljct,423,23JUN2019:20:15:00,67.5,13.08,66.0,66.6,66.3,67.1,65.4,24,27,23,0.505,28.6,30.2,27.2,6.138,6.3,254,2.7,7.1,0.00063,0.00088,75.1,69.4,10,3,.,.,16.05,0.00,0.00
15min,AgWx,beryljct,423,23JUN2019:20:30:00,65.7,13.06,66.5,65.4,65.7,66.6,64.8,25,27,22,0.535,28.5,30.5,26.0,5.634,5.9,250,3.9,6.7,0.00056,0.00080,74.9,69.5,10,0,.,.,16.05,0.00,0.00
15min,AgWx,beryljct,423,23JUN2019:20:45:00,64.4,13.06,64.6,64.9,64.6,66.1,62.4,26,32,22,0.536,29.1,32.7,26.4,6.84,5.9,228,14,9.5,0.00054,0.00076,74.6,69.6,10,0,.,.,16.05,0.00,0.00
15min,AgWx,beryljct,423,23JUN2019:21:00:00,63.9,13.05,65.5,65.4,65.1,65.4,64.8,26,27,25,0.547,29.3,30.0,28.7,6.577,6.6,219,5.4,8.3,0.00061,0.00085,74.3,69.7,10,0,.,.,16.05,0.00,0.00
15min,AgWx,beryljct,423,23JUN2019:21:15:00,64.0,13.04,66.4,66.3,65.8,66.6,65.3,25,26,23,0.518,28.6,29.5,27.4,8.64,7.8,221,6.5,10.3,0.00074,0.00100,74.0,69.7,10,0,.,.,16.05,0.00,0.00
15min,AgWx,beryljct,423,23JUN2019:21:30:00,64.4,13.02,65.9,65.9,66.3,66.6,65.9,23,24,23,0.514,27.7,28.1,27.3,7.585,8.4,220,5.9,11.1,0.00081,0.00108,73.7,69.7,9,0,.,.,16.05,0.00,0.00
15min,AgWx,beryljct,423,23JUN2019:21:45:00,64.5,13.02,65.8,65.6,65.8,66.1,65.6,23,24,23,0.510,27.5,28.1,27.1,8.15,8.0,221,5.8,10.1,0.00077,0.00104,73.4,69.8,10,0,.,.,16.05,0.00,0.00
15min,AgWx,beryljct,423,23JUN2019:22:00:00,64.5,13.01,64.7,65.1,65.6,66.0,65.1,23,24,23,0.509,27.2,27.8,26.7,6.445,7.8,220,7.3,9.8,0.00076,0.00101,73.1,69.8,10,0,.,.,16.05,0.00,0.00
15min,AgWx,beryljct,423,23JUN2019:22:15:00,64.1,13,59.4,59.8,64.0,65.2,59.8,25,29,23,0.503,27.2,27.5,26.6,5.086,6.0,196,21,8.6,0.00056,0.00078,72.8,69.8,10,0,.,.,16.05,0.00,0.00
15min,AgWx,beryljct,423,23JUN2019:22:30:00,62.7,12.99,59.8,59.7,59.5,60.4,58.9,29,30,27,0.485,26.8,27.4,25.8,6.16,6.4,158,7.1,9.5,0.00050,0.00069,72.5,69.8,10,0,.,.,16.05,0.01,0.00
15min,AgWx,beryljct,423,23JUN2019:22:45:00,61.7,12.98,61.9,61.2,60.7,61.3,59.7,26,28,24,0.451,25.6,26.3,24.6,8.81,8.9,160,8.4,12.4,0.00072,0.00093,72.2,69.8,10,0,.,.,16.05,0.00,0.00
15min,AgWx,beryljct,423,23JUN2019:23:00:00,61.2,12.97,61.2,61.4,61.9,62.4,61.2,24,25,23,0.458,24.7,25.1,24.4,6.138,7.6,174,7.2,9.9,0.00068,0.00090,71.9,69.8,10,0,.,.,16.05,0.00,0.00
15min,AgWx,beryljct,423,23JUN2019:23:15:00,60.9,12.96,59.1,59.9,61.4,61.9,59.9,25,27,24,0.479,25.0,26.1,24.5,7.475,7.3,166,8.7,9.0,0.00063,0.00085,71.6,69.8,10,0,.,.,16.05,0.00,0.00
15min,AgWx,beryljct,423,23JUN2019:23:30:00,59.9,12.93,53.5,53.4,56.1,59.8,53.3,35,41,27,0.556,28.3,30.6,25.9,5.02,6.5,149,6.4,7.8,0.00043,0.00058,71.4,69.7,10,0,.,.,16.05,0.00,0.00
15min,AgWx,bigpiney,439,23JUN2019:00:00:00,44.5,12.73,40.2,40.0,40.6,41.1,40.0,84,86,84,0.717,36.2,36.6,36.0,5.042,4.1,262,10,7.1,0.00003,0.00004,47.9,47.0,54,0,1,0.0,3.40,0.00,0.00
15min,AgWx,bigpiney,439,23JUN2019:00:15:00,44.0,12.72,39.8,39.5,39.6,40.0,39.5,86,86,85,0.702,35.7,36.0,35.5,5.217,4.2,261,9.9,5.5,0.00002,0.00003,47.9,47.0,54,0,1,0.0,3.40,0.00,0.00
15min,AgWx,bigpiney,439,23JUN2019:00:30:00,43.4,12.72,39.0,39.1,39.4,39.7,39.1,85,85,85,0.684,35.2,35.6,34.8,3.179,4.2,262,9.3,5.7,0.00003,0.00004,47.9,47.1,54,0,1,0.0,3.40,0.00,0.00
15min,AgWx,bigpiney,439,23JUN2019:00:45:00,42.8,12.71,38.1,38.0,38.5,39.0,38.0,86,87,85,0.671,34.7,34.9,34.3,3.398,3.6,258,11,4.5,0.00001,0.00002,47.8,47.1,54,0,1,0.0,3.40,0.00,0.00
15min,AgWx,bigpiney,439,23JUN2019:01:00:00,42.1,12.69,37.3,37.2,37.5,38.0,37.1,86,87,85,0.638,33.8,34.4,33.1,3.179,3.8,269,18,5.4,0.00001,0.00002,47.8,47.0,54,0,1,0.0,3.40,0.00,0.00
15min,AgWx,bigpiney,439,23JUN2019:01:15:00,41.3,12.68,35.4,35.2,36.0,37.3,35.2,87,89,85,0.614,32.5,33.2,32.0,2.411,2.4,304,16,3.9,-0.00002,-0.00001,47.8,47.1,54,0,1,0.0,3.40,0.00,0.00
15min,AgWx,bigpiney,439,23JUN2019:01:30:00,40.5,12.67,36.4,35.9,35.5,35.9,35.1,87,89,85,0.609,32.0,32.3,31.9,3.661,3.2,289,8.6,4.3,-0.00000,0.00000,47.8,47.0,54,0,1,0.0,3.40,0.00,0.00
15min,AgWx,bigpiney,439,23JUN2019:01:45:00,39.7,12.66,34.5,34.7,35.6,36.2,34.7,85,87,84,0.589,31.6,32.1,31.1,1.973,3.1,295,15,5.0,0.00000,0.00001,47.7,47.1,54,0,1,0.0,3.40,0.00,0.00
15min,AgWx,bigpiney,439,23JUN2019:02:00:00,39.0,12.65,33.6,33.5,34.0,34.6,33.5,88,89,87,0.578,30.9,31.1,30.6,2.061,2.0,302,20,3.9,-0.00003,-0.00003,47.7,47.1,54,0,1,0.0,3.40,0.00,0.00
15min,AgWx,bigpiney,439,23JUN2019:02:15:00,38.3,12.63,32.9,32.8,33.2,33.5,32.7,90,90,89,0.569,30.4,30.7,30.0,2.214,2.0,252,21,2.8,-0.00003,-0.00004,47.7,47.1,54,0,1,0.0,3.40,0.00,0.00
15min,AgWx,bigpiney,439,23JUN2019:02:30:00,37.6,12.62,33.4,33.1,33.0,33.3,32.6,90,91,90,0.573,30.5,30.9,30.0,2.872,1.7,264,20,2.9,-0.00004,-0.00005,47.6,47.0,54,0,1,0.0,3.40,0.00,0.00
15min,AgWx,bigpiney,439,23JUN2019:02:45:00,37.0,12.6,32.9,33.1,33.3,33.8,32.8,89,90,87,0.559,30.3,30.8,29.8,2.346,3.0,317,19,4.8,-0.00001,-0.00001,47.6,47.1,54,0,1,0.0,3.40,0.00,0.00
15min,AgWx,bigpiney,439,23JUN2019:03:00:00,36.6,12.59,32.7,32.4,32.7,33.0,32.4,88,89,88,0.553,29.7,30.0,29.4,2.324,1.8,282,25,2.8,-0.00003,-0.00004,47.6,47.1,54,0,1,0.0,3.40,0.00,0.00
15min,AgWx,bigpiney,439,23JUN2019:03:15:00,36.2,12.57,33.2,33.2,32.9,33.5,32.4,89,90,88,0.565,30.1,30.6,29.4,1.491,1.7,247,21,3.3,-0.00003,-0.00004,47.5,47.0,54,0,1,0.0,3.40,0.00,0.00
15min,AgWx,bigpiney,439,23JUN2019:03:30:00,35.8,12.55,32.0,32.1,32.9,33.7,32.1,89,91,86,0.537,30.0,31.0,28.8,1.513,1.4,138,33,2.5,-0.00004,-0.00005,47.5,47.1,54,0,1,0.0,3.40,0.00,0.00
15min,AgWx,bigpiney,439,23JUN2019:03:45:00,35.4,12.54,36.2,35.4,33.4,35.4,31.9,88,91,83,0.583,30.3,31.6,28.8,0,1.4,148,12,4.1,-0.00004,-0.00005,47.5,47.0,54,0,1,0.0,3.40,0.00,0.00
15min,AgWx,bigpiney,439,23JUN2019:04:00:00,35.2,12.52,31.1,31.4,34.2,36.1,31.4,84,88,79,0.528,29.7,31.0,28.4,2.017,1.8,269,71,3.4,-0.00002,-0.00002,47.4,47.1,54,0,1,0.0,3.40,0.00,0.00
15min,AgWx,bigpiney,439,23JUN2019:04:15:00,35.0,12.51,31.1,30.7,31.3,32.0,30.7,90,91,89,0.527,28.8,29.4,28.3,3.573,2.8,207,11,5.2,-0.00002,-0.00002,47.4,47.0,54,0,1,0.0,3.40,0.00,0.00
15min,AgWx,bigpiney,439,23JUN2019:04:30:00,34.7,12.5,32.2,31.6,31.1,31.7,30.6,91,92,91,0.549,28.8,29.4,28.3,1.71,2.7,224,13,3.9,-0.00002,-0.00002,47.3,47.0,54,0,1,0.0,3.40,0.00,0.00
15min,AgWx,bigpiney,439,23JUN2019:04:45:00,34.6,12.5,33.0,32.4,32.1,32.4,31.7,91,92,90,0.558,29.7,29.9,29.3,1.293,2.2,199,32,3.3,-0.00002,-0.00003,47.3,47.0,54,3,1,0.0,3.40,0.00,0.00
15min,AgWx,bigpiney,439,23JUN2019:05:00:00,34.5,12.5,32.8,32.2,32.5,33.0,32.0,90,90,89,0.556,29.7,30.3,29.3,2.85,2.0,194,25,3.4,-0.00031,-0.00030,47.2,47.0,54,15,1,0.0,3.40,0.00,0.00
15min,AgWx,bigpiney,439,23JUN2019:05:15:00,34.5,12.54,31.9,31.5,31.8,32.3,31.4,90,91,89,0.544,29.2,29.7,28.8,2.368,2.2,212,12,3.2,-0.00021,-0.00019,47.1,47.0,54,39,1,0.0,3.40,0.00,0.00
15min,AgWx,bigpiney,439,23JUN2019:05:30:00,34.7,12.59,33.8,33.0,32.0,33.0,31.4,92,92,91,0.584,29.9,30.9,29.2,2.894,2.9,232,7.8,4.5,-0.00002,0.00000,47.1,47.0,54,82,1,0.0,3.40,0.00,0.00
15min,AgWx,bigpiney,439,23JUN2019:05:45:00,35.3,12.72,35.7,35.4,34.4,35.4,33.1,90,92,88,0.622,31.7,32.6,31.0,2.17,2.3,218,15,3.7,0.00023,0.00027,47.0,47.0,54,142,1,0.0,3.40,0.00,0.00
15min,AgWx,bigpiney,439,23JUN2019:06:00:00,37.0,12.93,39.3,39.0,37.1,39.0,35.4,87,89,83,0.670,33.5,34.9,32.4,2.214,1.9,225,14,3.4,0.00061,0.00068,47.0,46.9,54,219,1,0.0,3.40,0.00,0.00
15min,AgWx,bigpiney,439,23JUN2019:06:15:00,39.2,12.94,41.3,41.2,40.2,41.2,39.0,80,83,77,0.695,34.6,35.5,33.9,2.17,1.1,186,37,2.6,0.00071,0.00079,46.9,47.0,54,230,1,0.0,3.40,0.00,0.00
15min,AgWx,bigpiney,439,23JUN2019:06:30:00,41.5,13.2,43.2,42.2,41.6,42.4,40.9,80,82,77,0.729,35.8,37.3,34.6,0.811,2.3,128,19,3.6,0.00105,0.00118,46.8,47.0,54,293,1,0.0,3.40,0.00,0.00
15min,AgWx,bigpiney,439,23JUN2019:06:45:00,43.7,13.33,44.4,43.0,42.6,43.1,42.3,77,81,73,0.699,35.8,37.2,34.4,0.877,2.2,152,30,3.5,0.00121,0.00136,46.8,46.9,54,317,0,0.0,3.40,0.00,0.00
15min,AgWx,bigpiney,439,23JUN2019:07:00:00,45.5,13.14,44.5,44.1,43.8,44.5,43.2,72,77,68,0.692,35.3,36.7,34.0,1.841,1.7,111,26,3.6,0.00126,0.00141,46.7,46.9,54,320,0,0.0,3.40,0.00,0.00
15min,AgWx,bigpiney,439,23JUN2019:07:15:00,47.1,13.07,44.9,45.1,44.6,45.2,44.1,70,73,68,0.694,35.6,36.7,35.0,0.789,1.6,74,35,4.0,0.00153,0.00170,46.6,46.8,54,363,0,0.0,3.40,0.00,0.00
15min,AgWx,bigpiney,439,23JUN2019:07:30:00,48.5,13.24,46.3,46.2,45.7,46.5,44.9,66,69,63,0.682,35.0,36.0,34.0,2.565,1.5,107,33,3.6,0.00181,0.00201,46.6,46.9,54,414,0,0.0,3.40,0.00,0.00
15min,AgWx,bigpiney,439,23JUN2019:07:45:00,50.0,13.46,48.2,47.4,47.0,47.9,46.0,63,68,60,0.670,35.2,36.8,33.9,0,1.7,153,30,3.4,0.00218,0.00242,46.5,46.8,54,474,0,0.0,3.40,0.00,0.00
15min,AgWx,bigpiney,439,23JUN2019:08:00:00,51.5,13.68,48.8,49.2,48.4,49.6,47.4,60,64,56,0.677,35.2,37.8,33.3,4.867,1.9,124,36,4.9,0.00248,0.00276,46.4,46.9,54,518,0,0.0,3.40,0.00,0.00
15min,AgWx,bigpiney,439,23JUN2019:08:15:00,52.9,14.53,51.2,50.1,49.5,50.2,48.6,57,61,52,0.684,35.0,37.0,32.7,1.666,2.8,105,31,4.7,0.00279,0.00315,46.4,46.8,54,564,0,0.0,3.40,0.00,0.00
15min,AgWx,bigpiney,439,23JUN2019:08:30:00,54.4,14.5,50.3,50.4,50.7,51.4,50.1,53,57,49,0.647,34.3,36.1,32.2,2.74,2.7,88,27,5.6,0.00330,0.00371,46.3,46.8,54,643,0,0.0,3.40,0.00,0.00
15min,AgWx,bigpiney,439,23JUN2019:08:45:00,55.7,13.84,50.8,50.7,50.8,51.8,50.3,52,58,48,0.685,33.9,37.3,31.6,3.683,2.3,117,31,5.7,0.00243,0.00276,46.3,46.8,54,435,0,0.0,3.40,0.00,0.00